Dublin, Ireland

12:25 AM IST on April 25, 2017 (GMT +0100)
Dublin Airport

Weather History for EIDW - March, 2013

Change the Weather History Date:

Wednesday, March 6, 2013

  Actual Average Record
Temperature  
Mean Temperature 44 °F -  
Max Temperature 47 °F 50 °F 57 °F (2014)
Min Temperature 40 °F 38 °F 26 °F (1997)
Degree Days  
Heating Degree Days 22    
Moisture  
Dew Point 42 °F    
Average Humidity 94    
Maximum Humidity 100    
Minimum Humidity 86    
Precipitation  
Precipitation 0.16 in 0.07 in - ()
Sea Level Pressure  
Sea Level Pressure 29.49 in    
Wind  
Wind Speed 9 mph ()    
Max Wind Speed 15 mph    
Max Gust Speed -    
Visibility 1.4 miles    
Events Rain    
Averages and records for this station are not official NWS values.
T = Trace of Precipitation, MM = Missing Value Source: Averaged Metar Reports

Daily Weather History Graph

Daily Weather History Graph

Search for Another Location

Airport or City:

Trip Planner

Search our weather history database for the weather conditions in past years. The results will help you decide how hot, cold, wet, or windy it might be!

Date:

Astronomy

Mar. 06, 2013 Rise Set
Actual Time 7:00 AM GMT 6:12 PM GMT
Civil Twilight 6:26 AM GMT 6:47 PM GMT
Nautical Twilight 5:45 AM GMT 7:27 PM GMT
Astronomical Twilight 5:04 AM GMT 8:09 PM GMT
Moon 3:35 AM GMT (3/6) 12:02 PM GMT (3/6)
Length of Visible Light 12h 21m
Length of Day
11h 11m
Waning Crescent, 32% of the Moon is Illuminated
Mar 6
Waning Crescent
Mar 11
New
Mar 19
First Quarter
Mar 27
Full
Apr 3
Last Quarter

Hourly Weather History & Observations

Time (GMT) Temp. Windchill Dew Point Humidity Pressure Visibility Wind Dir Wind Speed Gust Speed Precip Events Conditions
12:00 AM 42 °F - 39 °F 86% 29.57 in 2 mi ENE 8.9 mph - -   Mist
12:00 AM 41.0 °F 35.8 °F 39.2 °F 93% 29.56 in 2.5 mi ENE 8.1 mph - N/A   Mostly Cloudy
12:30 AM 41.0 °F 35.2 °F 39.2 °F 93% 29.53 in 2.5 mi ENE 9.2 mph - N/A   Mostly Cloudy
1:00 AM 41.0 °F 35.2 °F 39.2 °F 93% 29.53 in 2.5 mi NE 9.2 mph - N/A   Mostly Cloudy
1:30 AM 41.0 °F 35.8 °F 39.2 °F 93% 29.53 in 2.8 mi NE 8.1 mph - N/A   Mostly Cloudy
2:00 AM 41.0 °F 36.4 °F 39.2 °F 93% 29.53 in 2.8 mi NNE 6.9 mph - N/A   Mostly Cloudy
2:30 AM 41.0 °F 37.1 °F 39.2 °F 93% 29.53 in 2.8 mi NNE 5.8 mph - N/A   Mostly Cloudy
3:00 AM 41.0 °F 37.1 °F 39.2 °F 93% 29.50 in 2.5 mi NNE 5.8 mph - N/A   Mostly Cloudy
3:30 AM 41.0 °F 37.1 °F 39.2 °F 93% 29.50 in 1.9 mi NNE 5.8 mph - N/A   Mostly Cloudy
4:00 AM 41.0 °F 36.4 °F 39.2 °F 93% 29.50 in 1.6 mi NE 6.9 mph - N/A   Mostly Cloudy
4:30 AM 41.0 °F 36.4 °F 41.0 °F 100% 29.50 in 1.1 mi NE 6.9 mph - N/A   Mostly Cloudy
5:00 AM 42.8 °F 37.0 °F 41.0 °F 93% 29.47 in 1.1 mi NE 10.4 mph - N/A   Mostly Cloudy
5:30 AM 42.8 °F 37.0 °F 42.8 °F 100% 29.47 in 0.8 mi ENE 10.4 mph - N/A   Mostly Cloudy
6:00 AM 43 °F - 42 °F 94% 29.51 in 1 mi ENE 8.9 mph - -   Mist
6:00 AM 42.8 °F 37.5 °F 42.8 °F 100% 29.47 in 0.8 mi ENE 9.2 mph - N/A   Mostly Cloudy
6:30 AM 42.8 °F 37.0 °F 42.8 °F 100% 29.47 in 0.9 mi East 10.4 mph - N/A   Mostly Cloudy
7:00 AM 42.8 °F 37.0 °F 42.8 °F 100% 29.50 in 0.7 mi East 10.4 mph - N/A   Mostly Cloudy
7:30 AM 42.8 °F 36.6 °F 42.8 °F 100% 29.50 in 0.7 mi East 11.5 mph - N/A   Mostly Cloudy
8:00 AM 42.8 °F 37.5 °F 42.8 °F 100% 29.50 in 0.7 mi East 9.2 mph - N/A   Mostly Cloudy
8:30 AM 44.6 °F 39.7 °F 42.8 °F 93% 29.50 in 1.1 mi East 9.2 mph - N/A   Mostly Cloudy
9:00 AM 44.6 °F 39.7 °F 42.8 °F 93% 29.50 in 1.4 mi East 9.2 mph - N/A   Mostly Cloudy
9:30 AM 44.6 °F 40.2 °F 42.8 °F 93% 29.50 in 2.2 mi ENE 8.1 mph - N/A   Mostly Cloudy
10:00 AM 46.4 °F 41.9 °F 42.8 °F 87% 29.50 in 2.2 mi East 9.2 mph - N/A   Overcast
10:30 AM 46.4 °F 41.9 °F 42.8 °F 87% 29.50 in 2.2 mi East 9.2 mph - N/A Rain Light Rain
11:00 AM 46.4 °F 41.9 °F 44.6 °F 93% 29.50 in - East 9.2 mph - N/A Rain Light Rain
11:30 AM 46.4 °F 41.5 °F 44.6 °F 93% 29.50 in - East 10.4 mph - N/A Rain Light Rain
12:00 PM 46 °F - 44 °F 89% 29.52 in 2 mi East 11.2 mph - - Rain Light Rain
12:00 PM 46.4 °F 41.1 °F 44.6 °F 93% 29.50 in 2.5 mi East 11.5 mph - N/A Rain Light Rain
12:30 PM 46.4 °F 40.7 °F 44.6 °F 93% 29.50 in 2.5 mi East 12.7 mph - N/A Rain Light Rain
1:00 PM 46.4 °F 41.5 °F 44.6 °F 93% 29.50 in 2.5 mi East 10.4 mph - N/A Rain Light Rain
1:30 PM 46.4 °F 41.5 °F 44.6 °F 93% 29.50 in 1.9 mi East 10.4 mph - N/A Rain Light Rain
2:00 PM 46.4 °F 41.1 °F 44.6 °F 93% 29.47 in 0.9 mi East 11.5 mph - N/A Rain Light Rain
2:30 PM 44.6 °F 38.4 °F 42.8 °F 93% 29.47 in 0.8 mi East 12.7 mph - N/A Rain Light Rain
3:00 PM 44.6 °F 38.8 °F 42.8 °F 93% 29.47 in 0.7 mi East 11.5 mph - N/A Rain Light Rain
3:30 PM 44.6 °F 38.4 °F 42.8 °F 93% 29.47 in 0.6 mi East 12.7 mph - N/A Rain Light Rain
4:00 PM 44.6 °F 37.8 °F 42.8 °F 93% 29.47 in 0.6 mi East 15.0 mph - N/A Rain Light Rain
4:30 PM 44.6 °F 38.1 °F 42.8 °F 93% 29.47 in 0.6 mi East 13.8 mph - N/A Rain Light Rain
5:00 PM 44.6 °F 38.1 °F 42.8 °F 93% 29.47 in 0.6 mi ENE 13.8 mph - N/A Rain Light Rain
5:30 PM 42.8 °F 36.6 °F 42.8 °F 100% 29.47 in 0.6 mi East 11.5 mph - N/A Rain Light Rain
6:00 PM 44 °F - 43 °F 93% 29.49 in 1 mi East 8.9 mph - - Rain Light Rain
6:00 PM 42.8 °F 37.5 °F 42.8 °F 100% 29.47 in 0.8 mi East 9.2 mph - N/A Rain Light Rain
6:30 PM 44.6 °F 39.7 °F 42.8 °F 93% 29.47 in 0.7 mi East 9.2 mph - N/A Rain Light Rain
7:00 PM 44.6 °F 40.2 °F 42.8 °F 93% 29.47 in 0.7 mi East 8.1 mph - N/A Rain Light Rain
7:30 PM 42.8 °F 38.6 °F 42.8 °F 100% 29.47 in 0.7 mi East 6.9 mph - N/A Rain Light Rain
8:00 PM 44.6 °F 39.2 °F 42.8 °F 93% 29.47 in 0.7 mi East 10.4 mph - N/A Rain Light Rain
8:30 PM 44.6 °F 39.7 °F 42.8 °F 93% 29.47 in 0.7 mi East 9.2 mph - N/A Rain Light Rain
9:00 PM 44.6 °F 39.7 °F 42.8 °F 93% 29.47 in 0.7 mi East 9.2 mph - N/A Rain Light Rain
9:30 PM 44.6 °F 39.7 °F 42.8 °F 93% 29.47 in 1.2 mi East 9.2 mph - N/A Rain Light Rain
10:00 PM 44.6 °F 39.7 °F 42.8 °F 93% 29.47 in 1.2 mi East 9.2 mph - N/A Rain Light Rain
10:30 PM 42.8 °F 37.5 °F 42.8 °F 100% 29.47 in 1.2 mi East 9.2 mph - N/A Rain Light Rain
11:00 PM 44.6 °F 39.7 °F 42.8 °F 93% 29.47 in 1.2 mi East 9.2 mph - N/A Rain Light Rain
11:30 PM 44.6 °F 39.7 °F 42.8 °F 93% 29.44 in 1.1 mi East 9.2 mph - N/A Rain Light Rain